ZTF彗星

C/2021 D2 ( ZTF )

English version
Home page
Updated on May 16, 2022

---------------------------------------------------------------------

・ プロフィール

発見日 2021年2月19日
発見光度 19.5等
発見者 Zwicky Transient Facility

・ 写真集

・ 軌道要素

Epoch 2022 Jan. 21.0 TT = JDT 2459600.5
T 2022 Feb. 3.98104 TT                                  Rudenko
q   2.9462998            (2000.0)            P               Q
z  -0.0004865      Peri.  125.02983     -0.26329868     -0.52769414
 +/-0.0000003      Node   305.67863     +0.15104251     +0.80426233
e   1.0014333      Incl.   83.83072     +0.95281686     -0.27331483
From 569 observations 2021 Feb. 19-2022 Feb. 21, mean residual 0".7.

・ 星図

・ 光度変化

        m1 = 9.8 + 5 logΔ + 10.0 log r(t + 175)

        ※ 灰色の曲線は、m1 = 8.7 + 5 logΔ + 10.0 log r の光度曲線です。

---------------------------------------------------------------------

軌道要素はM.P.E.C. 2022-D36に掲載されたものです。
星図はステラナビゲータ Ver.10 (アストロアーツ) で作成したものです。
光度グラフはComet for Windowsで作成したものです。

---------------------------------------------------------------------

Copyright(C) Seiichi Yoshida (comet@aerith.net). All rights reserved.